Olney-Noble, IL

1:42 AM CDT on May 27, 2017 (GMT -0500)
Olney-Noble

Weather History for KOLY - December, 2012

Change the Weather History Date:

Sunday, December 2, 2012

  Actual Average (KEVV) Record (KEVV)
Temperature  
Mean Temperature 64 °F -  
Max Temperature 68 °F 48 °F 77 °F (1982)
Min Temperature 59 °F 31 °F 7 °F (1929)
Degree Days  
Heating Degree Days 2    
Growing Degree Days 14 (Base 50)    
Moisture  
Dew Point 58 °F    
Average Humidity 84    
Maximum Humidity 100    
Minimum Humidity 68    
Precipitation  
Precipitation 0.08 in - - ()
Sea Level Pressure  
Sea Level Pressure 30.04 in    
Wind  
Wind Speed 9 mph (South)    
Max Wind Speed 14 mph    
Max Gust Speed 22 mph    
Visibility 8 miles    
Events Rain    
Averages and records for this station are not official NWS values.
T = Trace of Precipitation, MM = Missing Value Source: NWS Daily Summary

Daily Weather History Graph

Daily Weather History Graph

Search for Another Location

Airport or City:

Trip Planner

Search our weather history database for the weather conditions in past years. The results will help you decide how hot, cold, wet, or windy it might be!

Date:

Astronomy

Dec. 02, 2012 Rise Set
Actual Time 6:53 AM CST 4:31 PM CST
Civil Twilight 6:23 AM CST 5:00 PM CST
Nautical Twilight 5:50 AM CST 5:33 PM CST
Astronomical Twilight 5:18 AM CST 6:05 PM CST
Moon 8:17 PM CST (12/2) 9:43 AM CST (12/2)
Length of Visible Light 10h 36m
Length of Day
9h 38m
Waning Gibbous, 85% of the Moon is Illuminated
Dec 2
Waning Gibbous
Dec 6
Last Quarter
Dec 13
New
Dec 19
First Quarter
Dec 28
Full

Hourly Weather History & Observations

Time (CST) Temp. Dew Point Humidity Pressure Visibility Wind Dir Wind Speed Gust Speed Precip Events Conditions
12:15 AM 59.0 °F 50.0 °F 72% 30.02 in 10.0 mi South 10.4 mph 16.1 mph N/A   Clear
12:35 AM 60.8 °F 51.8 °F 72% 30.01 in 10.0 mi South 10.4 mph - N/A   Scattered Clouds
12:55 AM 60.8 °F 51.8 °F 72% 30.01 in 10.0 mi South 12.7 mph 17.3 mph N/A   Mostly Cloudy
1:15 AM 60.8 °F 51.8 °F 72% 30.01 in 10.0 mi South 12.7 mph 20.7 mph N/A   Overcast
1:35 AM 60.8 °F 51.8 °F 72% 30.00 in 10.0 mi South 13.8 mph 21.9 mph N/A   Overcast
1:55 AM 60.8 °F 51.8 °F 72% 30.01 in 10.0 mi South 10.4 mph - N/A   Overcast
2:15 AM 62.6 °F 51.8 °F 68% 30.00 in 10.0 mi South 11.5 mph 18.4 mph N/A Rain Light Rain
2:35 AM 62.6 °F 51.8 °F 68% 30.00 in 10.0 mi South 10.4 mph 16.1 mph N/A   Overcast
2:55 AM 62.6 °F 51.8 °F 68% 30.00 in 10.0 mi South 10.4 mph 17.3 mph N/A   Mostly Cloudy
3:15 AM 62.6 °F 51.8 °F 68% 29.99 in 10.0 mi South 10.4 mph 18.4 mph N/A   Overcast
3:35 AM 62.6 °F 51.8 °F 68% 29.99 in 10.0 mi SSW 10.4 mph 16.1 mph N/A   Mostly Cloudy
3:55 AM 60.8 °F 53.6 °F 77% 29.99 in 10.0 mi South 10.4 mph - N/A Rain Rain
4:15 AM 60.8 °F 51.8 °F 72% 29.98 in 10.0 mi South 10.4 mph - N/A   Mostly Cloudy
4:35 AM 62.6 °F 53.6 °F 72% 29.99 in 10.0 mi SW 6.9 mph - N/A   Mostly Cloudy
4:55 AM 60.8 °F 53.6 °F 77% 30.00 in 10.0 mi SW 8.1 mph - 0.03 in Rain Rain
5:15 AM 60.8 °F 53.6 °F 77% 30.00 in 7.0 mi SSW 8.1 mph - 0.05 in Rain Rain
5:35 AM 60.8 °F 53.6 °F 77% 30.00 in 10.0 mi SSW 8.1 mph - 0.05 in   Overcast
5:55 AM 60.8 °F 53.6 °F 77% 30.01 in 10.0 mi SSW 8.1 mph - N/A   Overcast
6:15 AM 60.8 °F 53.6 °F 77% 30.01 in 10.0 mi SSW 8.1 mph - N/A   Overcast
6:35 AM 60.8 °F 53.6 °F 77% 30.02 in 10.0 mi SSW 6.9 mph - N/A   Overcast
6:55 AM 60.8 °F 55.4 °F 82% 30.03 in 10.0 mi SSW 5.8 mph - N/A   Overcast
7:15 AM 60.8 °F 55.4 °F 82% 30.04 in 10.0 mi SSW 6.9 mph - N/A   Mostly Cloudy
7:35 AM 60.8 °F 55.4 °F 82% 30.04 in 10.0 mi SSW 5.8 mph - N/A   Mostly Cloudy
7:55 AM 62.6 °F 55.4 °F 77% 30.04 in 10.0 mi SSW 5.8 mph - N/A   Overcast
8:15 AM 62.6 °F 55.4 °F 77% 30.04 in 10.0 mi SSW 6.9 mph - N/A   Mostly Cloudy
8:35 AM 62.6 °F 57.2 °F 82% 30.05 in 10.0 mi SSW 6.9 mph - N/A   Mostly Cloudy
8:55 AM 62.6 °F 57.2 °F 82% 30.05 in 10.0 mi SSW 5.8 mph - N/A   Mostly Cloudy
9:15 AM 64.4 °F 57.2 °F 77% 30.05 in 10.0 mi SSW 8.1 mph - N/A   Clear
9:35 AM 64.4 °F 57.2 °F 77% 30.06 in 10.0 mi SSW 8.1 mph - N/A   Scattered Clouds
9:55 AM 66.2 °F 57.2 °F 73% 30.05 in 10.0 mi SSW 12.7 mph 17.3 mph N/A   Scattered Clouds
10:15 AM 66.2 °F 59.0 °F 78% 30.05 in 10.0 mi SSW 9.2 mph - N/A   Scattered Clouds
10:35 AM 66.2 °F 59.0 °F 78% 30.05 in 10.0 mi SSW 10.4 mph - N/A   Mostly Cloudy
10:55 AM 68.0 °F 60.8 °F 78% 30.05 in 10.0 mi SSW 9.2 mph 16.1 mph N/A   Mostly Cloudy
11:15 AM 68.0 °F 59.0 °F 73% 30.04 in 10.0 mi SSW 11.5 mph 19.6 mph N/A   Mostly Cloudy
11:35 AM 66.2 °F 60.8 °F 83% 30.04 in 10.0 mi SSW 9.2 mph 17.3 mph N/A   Mostly Cloudy
11:55 AM 66.2 °F 59.0 °F 78% 30.04 in 10.0 mi SSW 9.2 mph - N/A   Overcast
12:15 PM 64.4 °F 59.0 °F 83% 30.03 in 10.0 mi SSW 6.9 mph - N/A   Overcast
12:35 PM 66.2 °F 60.8 °F 83% 30.03 in 10.0 mi SSW 8.1 mph - N/A   Overcast
12:55 PM 66.2 °F 60.8 °F 83% 30.02 in 10.0 mi SSW 11.5 mph - N/A   Overcast
1:15 PM 66.2 °F 60.8 °F 83% 30.02 in 10.0 mi SSW 8.1 mph - N/A   Overcast
1:35 PM 66.2 °F 60.8 °F 83% 30.02 in 10.0 mi SSW 9.2 mph - N/A   Overcast
1:55 PM 66.2 °F 60.8 °F 83% 30.02 in 7.0 mi SSW 8.1 mph - N/A   Mostly Cloudy
2:15 PM 66.2 °F 60.8 °F 83% 30.02 in 10.0 mi South 8.1 mph - N/A   Overcast
2:35 PM 66.2 °F 60.8 °F 83% 30.03 in 7.0 mi SSW 8.1 mph - N/A   Mostly Cloudy
2:55 PM 66.2 °F 60.8 °F 83% 30.03 in 10.0 mi SSW 8.1 mph - N/A   Overcast
3:15 PM 64.4 °F 60.8 °F 88% 30.04 in 10.0 mi SSW 6.9 mph - N/A   Overcast
3:35 PM 64.4 °F 60.8 °F 88% 30.04 in 10.0 mi SSW 5.8 mph - N/A   Overcast
3:55 PM 64.4 °F 60.8 °F 88% 30.04 in 10.0 mi South 3.5 mph - N/A   Overcast
4:15 PM 64.4 °F 60.8 °F 88% 30.04 in 7.0 mi SSW 4.6 mph - N/A   Overcast
4:35 PM 64.4 °F 60.8 °F 88% 30.04 in 10.0 mi South 5.8 mph - N/A   Overcast
4:55 PM 64.4 °F 60.8 °F 88% 30.05 in 10.0 mi South 5.8 mph - N/A   Overcast
5:15 PM 62.6 °F 60.8 °F 94% 30.05 in 7.0 mi South 5.8 mph - N/A   Overcast
5:35 PM 62.6 °F 60.8 °F 94% 30.06 in 7.0 mi South 5.8 mph - N/A   Overcast
5:55 PM 62.6 °F 60.8 °F 94% 30.06 in 5.0 mi South 4.6 mph - N/A   Overcast
6:15 PM 62.6 °F 62.6 °F 100% 30.06 in 5.0 mi South 5.8 mph - N/A   Overcast
6:35 PM 60.8 °F 60.8 °F 100% 30.06 in 5.0 mi South 5.8 mph - N/A   Overcast
6:55 PM 62.6 °F 62.6 °F 100% 30.06 in 5.0 mi South 5.8 mph - N/A   Overcast
7:15 PM 62.6 °F 62.6 °F 100% 30.06 in 4.0 mi South 5.8 mph - N/A   Overcast
7:35 PM 62.6 °F 62.6 °F 100% 30.07 in 5.0 mi South 4.6 mph - N/A   Overcast
7:55 PM 62.6 °F 62.6 °F 100% 30.07 in 5.0 mi SSE 4.6 mph - N/A   Overcast
8:15 PM 62.6 °F 62.6 °F 100% 30.07 in 5.0 mi SSE 5.8 mph - N/A   Overcast
8:35 PM 62.6 °F 62.6 °F 100% 30.07 in 5.0 mi SSE 3.5 mph - N/A   Overcast
8:55 PM 60.8 °F 60.8 °F 100% 30.07 in 4.0 mi SSE 4.6 mph - N/A   Mostly Cloudy
9:15 PM 60.8 °F 60.8 °F 100% 30.07 in 4.0 mi SSE 3.5 mph - N/A   Mostly Cloudy
9:35 PM 60.8 °F 60.8 °F 100% 30.07 in 4.0 mi Calm Calm - N/A   Mostly Cloudy
9:55 PM 60.8 °F 60.8 °F 100% 30.07 in 4.0 mi SSE 4.6 mph - N/A   Overcast
10:15 PM 60.8 °F 60.8 °F 100% 30.07 in 4.0 mi Calm Calm - N/A   Overcast
10:35 PM 60.8 °F 60.8 °F 100% 30.07 in 4.0 mi SE 3.5 mph - N/A   Overcast
10:55 PM 60.8 °F 60.8 °F 100% 30.08 in 5.0 mi SE 3.5 mph - N/A   Overcast
11:15 PM 60.8 °F 60.8 °F 100% 30.08 in 4.0 mi SE 4.6 mph - N/A   Overcast
11:35 PM 60.8 °F 60.8 °F 100% 30.08 in 5.0 mi SSE 4.6 mph - N/A   Overcast
11:55 PM 60.8 °F 60.8 °F 100% 30.07 in 5.0 mi SSE 5.8 mph - N/A   Overcast